CW5229 Weather Reports


Display with metric or nautical units.
time (UTC)temp
F
wind
direction
speed
MPH
gust
MPH
rain 1hr
in
rain 24hr
in
rain mn
in
humidity
%
barometer
mb
20260905034514 81 279 0.0 0.0 0.00 0.00 0.00 85 1010.3
20260905033008 82 279 0.0 0.0 0.00 0.00 0.00 85 1010.6
20260905031509 82 279 0.0 0.0 0.00 0.00 0.00 83 1010.6
20260905030006 83 279 0.0 0.0 0.00 0.00 0.00 82 1010.6
20260905024535 83 279 0.0 0.0 0.00 0.00 0.00 82 1010.5
20260905023034 83 279 0.0 0.0 0.00 0.00 0.00 81 1010.4
20260905021504 84 279 0.0 0.0 0.00 0.00 0.00 80 1010.3
20260905020004 84 279 0.0 0.0 0.00 0.00 0.00 81 1010.3
20260905014503 84 279 0.0 0.0 0.00 0.00 0.00 80 1010.3
20260905013102 84 279 0.0 0.0 0.00 0.00 0.00 79 1010.0
20260905011617 85 279 0.0 0.0 0.00 0.00 0.00 79 1009.7
20260905010059 86 279 0.0 0.0 0.00 0.00 0.00 76 1009.5
20260905004557 87 279 0.0 1.0 0.00 0.00 0.00 75 1009.6
20260905003059 88 260 0.0 1.0 0.00 0.00 0.00 73 1009.5
20260905001607 89 264 0.0 0.0 0.00 0.00 0.00 72 1009.4
20260905000057 89 280 0.0 1.0 0.00 0.00 0.00 70 1009.6
20260904234554 90 260 0.0 1.0 0.00 0.00 0.00 69 1009.6
20260904233105 91 169 0.0 3.0 0.00 0.00 0.00 68 1009.7
20260904231552 92 261 0.0 1.0 0.00 0.00 0.00 66 1009.7
20260904230052 92 236 0.0 4.0 0.00 0.00 0.00 64 1009.6
20260904224550 93 258 0.0 5.0 0.00 0.00 0.00 62 1009.6
20260904223049 92 240 0.0 7.0 0.00 0.00 0.00 64 1009.5
20260904221550 93 328 1.0 6.0 0.00 0.00 0.00 63 1009.4
20260904220100 94 150 1.0 6.0 0.00 0.00 0.00 62 1009.3
20260904214538 95 175 2.0 5.0 0.00 0.00 0.00 60 1009.3
20260904213036 95 217 1.0 4.0 0.00 0.00 0.00 63 1009.2
20260904211533 95 257 1.0 5.0 0.00 0.00 0.00 64 1009.4
20260904210031 94 307 1.0 5.0 0.00 0.00 0.00 66 1009.7
20260904204530 94 217 0.0 5.0 0.00 0.00 0.00 64 1010.0
20260904203022 94 163 0.0 5.0 0.00 0.00 0.00 66 1010.0
20260904201517 93 279 1.0 6.0 0.00 0.00 0.00 66 1010.1
20260904200022 93 224 1.0 4.0 0.00 0.00 0.00 67 1010.3
20260904194512 93 182 1.0 5.0 0.00 0.00 0.00 66 1010.5
20260904193004 93 139 1.0 6.0 0.00 0.00 0.00 65 1010.9
20260904191557 92 108 1.0 4.0 0.00 0.00 0.00 66 1011.1
20260904190053 91 354 2.0 6.0 0.00 0.00 0.00 68 1011.2
20260904184549 90 134 1.0 6.0 0.00 0.00 0.00 69 1011.4
20260904183014 89 98 1.0 9.0 0.00 0.00 0.00 71 1011.8
20260904181513 88 89 3.0 11.0 0.00 0.00 0.00 71 1012.3
20260904180010 86 103 3.0 9.0 0.00 0.00 0.00 74 1012.8
20260904174507 84 101 4.0 11.0 0.00 0.00 0.00 75 1013.0
20260904173118 83 86 4.0 11.0 0.00 0.00 0.00 77 1013.4
20260904171604 83 39 5.0 11.0 0.00 0.00 0.00 77 1013.7
20260904170022 85 60 2.0 10.0 0.00 0.00 0.00 78 1013.7
20260904164521 86 79 3.0 10.0 0.00 0.00 0.00 75 1013.6
20260904163020 86 62 1.0 6.0 0.00 0.00 0.00 75 1013.3
20260904161516 86 97 1.0 7.0 0.00 0.00 0.00 73 1012.9
20260904160014 86 76 4.0 7.0 0.00 0.00 0.00 73 1013.0
20260904154513 86 16 4.0 10.0 0.00 0.00 0.00 72 1012.7
20260904153008 87 58 2.0 9.0 0.00 0.00 0.00 71 1012.5
20260904151507 89 39 1.0 5.0 0.00 0.00 0.00 68 1012.4
20260904150006 88 345 2.0 7.0 0.00 0.00 0.00 67 1012.4
20260904144505 88 30 1.0 3.0 0.00 0.00 0.00 68 1012.3
20260904143005 88 323 1.0 5.0 0.00 0.00 0.00 68 1012.3
20260904141604 87 60 0.0 4.0 0.00 0.00 0.00 71 1012.1
20260904140100 87 324 0.0 2.0 0.00 0.00 0.00 70 1011.9
20260904134606 85 328 0.0 3.0 0.00 0.00 0.00 73 1012.0
20260904133057 87 329 0.0 2.0 0.00 0.00 0.00 71 1012.0
20260904131557 84 173 0.0 1.0 0.00 0.00 0.00 76 1011.9
20260904130056 84 135 0.0 1.0 0.00 0.00 0.00 76 1011.9
20260904124602 82 214 0.0 1.0 0.00 0.00 0.00 78 1011.8
20260904123052 81 214 0.0 0.0 0.00 0.00 0.00 80 1011.4
20260904121551 0 0.0 0.0 0.00 0.00 0.00 1011.1
20260904120048 0 0.0 0.0 0.00 0.00 0.00 1011.0
20260904114545 0 0.0 0.0 0.00 0.00 0.00 1010.6
20260904113040 0 0.0 0.0 0.00 0.00 0.00 1010.4
20260904111531 0 0.0 0.0 0.00 0.00 0.00 1010.3
20260904110027 0 142 0.0 1.0 0.00 0.00 0.00 1010.2
20260904104524 75 175 0.0 2.0 0.00 0.00 0.00 88 1010.1
20260904103052 75 179 0.0 3.0 0.00 0.00 0.00 88 1010.2
20260904101557 75 167 0.0 1.0 0.00 0.00 0.00 89 1010.1
20260904100048 75 224 0.0 3.0 0.00 0.00 0.00 90 1010.1
20260904094559 75 233 0.0 3.0 0.00 0.00 0.00 90 1010.2
20260904093048 75 223 0.0 2.0 0.00 0.00 0.00 90 1010.5
20260904091545 75 205 0.0 0.0 0.00 0.00 0.00 89 1010.8
20260904090042 76 205 0.0 1.0 0.00 0.00 0.00 89 1010.8
20260904084541 76 233 0.0 1.0 0.00 0.00 0.00 88 1010.9
20260904083042 76 176 0.0 0.0 0.00 0.00 0.00 88 1010.7
20260904081541 77 226 0.0 1.0 0.00 0.00 0.00 88 1010.6
20260904080009 77 175 0.0 0.0 0.00 0.00 0.00 88 1010.2
20260904074508 77 167 0.0 3.0 0.00 0.00 0.00 89 1010.0
20260904073006 76 232 0.0 3.0 0.00 0.00 0.00 90 1010.0
20260904071505 76 228 0.0 2.0 0.00 0.00 0.00 90 1010.1
20260904070004 76 119 0.0 1.0 0.00 0.00 0.00 90 1010.5
20260904064503 77 98 0.0 1.0 0.00 0.00 0.00 90 1010.8
20260904063101 77 133 0.0 0.0 0.00 0.00 0.00 90 1011.1
20260904061529 77 133 0.0 0.0 0.00 0.00 0.00 89 1011.2
20260904060028 78 133 0.0 0.0 0.00 0.00 0.00 89 1011.2
20260904054556 78 132 0.0 0.0 0.00 0.00 0.00 89 1011.4
20260904053054 78 132 0.0 0.0 0.00 0.00 0.00 89 1011.2
20260904051553 78 135 0.0 0.0 0.00 0.00 0.00 88 1011.2
20260904050050 79 39 0.0 0.0 0.00 0.00 0.00 88 1011.2
20260904044551 79 155 0.0 0.0 0.00 0.00 0.00 87 1011.1
20260904043058 79 210 0.0 2.0 0.00 0.00 0.00 87 1011.2
20260904041544 79 176 0.0 1.0 0.00 0.00 0.00 86 1011.3
20260904040044 80 115 0.0 1.0 0.00 0.00 0.00 86 1011.3